DateTimeUTC,F1_A11,F1_S11,BsB_S11,BsG_S11,BsR_S11,BbsB_S11,BbsG_S11,BbsR_S11,BaB_A11,BaG_A11,BaR_A11,T_S11,U_S11,P_S11,T1_A11
2020-06-03T00:00:00Z,00000380,20000600,,,,,,,,,,25.1,02.2,0676.4,31.1
2020-06-03T00:01:00Z,00000380,20000600,,,,,,,,,,25.1,02.2,0676.4,31.1
2020-06-03T00:02:00Z,00000380,20000600,,,,,,,,,,25.1,02.2,0676.4,31.1
2020-06-03T00:03:00Z,00000380,60000600,,,,,,,,,,25.1,02.2,0676.4,31.1
2020-06-03T00:04:00Z,00000380,40000600,0000.71,0000.30,0000.23,0000.17,0000.52,0000.65,-000.01,-000.09,0000.10,24.9,02.3,0677.3,31.1
2020-06-03T00:05:00Z,00000380,00000600,0001.55,0000.10,0000.05,0000.22,0000.10,0000.38,-000.01,-000.06,-000.00,24.9,02.3,0677.4,31.1
2020-06-03T00:06:00Z,00000380,00000600,0000.55,-000.23,0000.50,0000.30,0000.31,0000.44,0000.27,0000.21,0000.07,24.9,02.3,0677.4,31.1
2020-06-03T00:07:00Z,00000380,00000600,0000.56,0000.20,0000.28,-000.29,0000.10,0000.31,-000.13,0000.11,0000.09,24.8,02.3,0677.4,31.1
2020-06-03T00:08:00Z,00000380,00000600,0000.79,0000.25,0000.52,0000.16,0000.04,0000.04,0000.16,0000.07,-000.06,24.8,02.3,0677.4,31.1
2020-06-03T00:09:00Z,00000380,00000600,0000.05,0000.22,0000.29,-000.69,0000.33,0000.44,-000.09,0000.06,-000.07,24.8,02.3,0677.4,31.1
2020-06-03T00:10:00Z,00000380,00000600,0001.61,0000.79,0000.24,-000.93,0000.62,0000.05,0000.16,0000.06,0000.28,24.8,02.3,0677.4,31.1
2020-06-03T00:11:00Z,00000380,00000600,0000.13,0000.55,0000.61,-000.35,0000.19,0000.23,0000.31,0000.07,0000.13,24.8,02.4,0677.4,31.1
2020-06-03T00:12:00Z,00000380,00000600,-000.68,0000.14,0000.72,0000.26,0000.49,0000.80,0000.06,0000.25,-000.02,24.8,02.4,0677.4,31.1
2020-06-03T00:13:00Z,00000380,00000600,-001.17,0000.93,0000.14,0000.17,0000.08,-000.15,0000.26,0000.15,0000.14,24.8,02.5,0677.3,31.1
2020-06-03T00:14:00Z,00000380,00000600,0001.17,0000.15,0000.66,-000.61,0000.27,0000.76,-000.06,-000.10,0000.05,24.8,02.5,0677.4,31.1
2020-06-03T00:15:00Z,00000380,00000600,0000.14,-000.14,0000.71,0001.07,0000.57,0000.40,-000.08,0000.01,0000.11,24.8,02.5,0677.4,31.1
2020-06-03T00:16:00Z,00000380,00000600,0000.92,0000.39,0000.19,0000.16,0000.35,0000.21,0000.20,0000.05,-000.22,24.8,02.5,0677.4,31.1
2020-06-03T00:17:00Z,00000380,00000600,0001.46,0001.19,0000.32,0000.69,0000.40,-000.15,0000.00,0000.01,0000.11,24.8,02.5,0677.4,31.1
2020-06-03T00:18:00Z,00000380,00000600,-000.11,-000.25,0000.49,0000.14,0000.47,-000.13,0000.02,0000.22,0000.21,24.8,02.5,0677.4,31.1
2020-06-03T00:19:00Z,00000380,00000600,0000.62,0000.05,-000.12,0000.45,0000.21,0000.30,0000.12,-000.13,-000.09,24.8,02.6,0677.4,31.1
2020-06-03T00:20:00Z,00000380,00000600,0000.93,0000.75,0000.51,0000.35,0000.38,0000.33,-000.06,-000.06,0000.01,24.8,02.6,0677.4,31.1
2020-06-03T00:21:00Z,00000380,00000600,0001.08,0000.75,0000.57,-000.55,0000.05,0000.34,-000.16,0000.19,0000.07,24.8,02.5,0677.4,31.1
2020-06-03T00:22:00Z,00000380,00000600,0001.45,0000.54,-000.13,-000.21,0000.03,0000.20,0000.21,0000.04,0000.00,24.8,02.5,0677.4,31.1
2020-06-03T00:23:00Z,00000380,00000600,0001.12,0000.81,0000.42,-000.29,0000.32,0000.57,0000.03,0000.07,0000.13,24.8,02.5,0677.4,31.1
2020-06-03T00:24:00Z,00000380,00000600,0000.05,0000.57,0000.19,-000.41,0000.08,0000.27,0000.21,-000.01,0000.06,24.7,02.5,0677.4,31.1
2020-06-03T00:25:00Z,00000380,00000600,0001.36,0000.43,0000.08,0000.09,0000.15,0000.29,-000.34,-000.18,-000.06,24.8,02.5,0677.4,31.1
2020-06-03T00:26:00Z,00000380,00000600,0001.10,0000.42,0000.56,-000.63,0000.29,0000.23,-000.15,-000.13,-000.19,24.8,02.4,0677.5,31.1
2020-06-03T00:27:00Z,00000380,00000600,0000.03,0000.40,0000.27,-000.33,0000.52,0000.28,-000.04,-000.08,0000.06,24.7,02.3,0677.5,31.1
2020-06-03T00:28:00Z,00000380,00000600,0001.40,0000.12,0000.21,-000.51,0000.30,0000.09,0000.49,0000.51,0000.14,24.7,02.4,0677.4,31.1
2020-06-03T00:29:00Z,00000380,00000600,0001.44,0000.57,0000.07,-001.03,0000.89,-000.09,0000.10,0000.05,-000.07,24.7,02.6,0677.4,31.1
2020-06-03T00:30:00Z,00000380,00000600,0000.55,0000.74,0000.76,-000.02,0000.32,0000.33,-000.28,-000.25,-000.13,24.7,02.5,0677.5,31.1
2020-06-03T00:31:00Z,00000380,00000600,0000.98,0000.23,0000.52,0000.27,0000.60,0000.29,0000.10,0000.13,0000.18,24.7,02.4,0677.5,31.1
2020-06-03T00:32:00Z,00000380,00000600,0000.35,0000.11,-000.11,0000.61,0000.02,-000.03,0000.12,0000.16,0000.23,24.7,02.4,0677.5,31.1
2020-06-03T00:33:00Z,00000380,00000600,-000.43,0000.29,0000.32,0000.69,0000.07,0000.23,0000.17,0000.04,-000.01,24.7,02.5,0677.4,31.1
2020-06-03T00:34:00Z,00000380,00000600,0001.67,0000.36,0000.19,-000.68,0000.28,0000.24,-000.12,0000.15,0000.04,24.7,02.6,0677.4,31.1
2020-06-03T00:35:00Z,00000380,00000600,-000.07,0000.53,0000.06,-000.20,0000.59,0000.40,0000.10,-000.16,-000.08,24.7,02.5,0677.4,31.1
2020-06-03T00:36:00Z,00000380,00000600,0000.14,-000.29,0000.45,0000.44,0000.46,0000.30,-000.07,0000.02,0000.05,24.7,02.5,0677.4,31.1
2020-06-03T00:37:00Z,00000380,00000600,0000.68,0000.20,0000.43,0000.28,0000.54,-000.09,0000.02,-000.04,-000.02,24.7,02.5,0677.4,31.1
2020-06-03T00:38:00Z,00000380,00000600,0002.07,0000.54,0000.03,-000.04,0000.29,0000.14,-000.05,-000.19,-000.06,24.7,02.4,0677.4,31.1
2020-06-03T00:39:00Z,00000380,00000600,0001.02,0000.53,0000.82,0000.21,0000.39,0000.32,0000.16,0000.08,0000.09,24.7,02.4,0677.4,31.1
2020-06-03T00:40:00Z,00000380,00000600,0001.16,0000.60,-000.21,0000.71,0000.13,0000.13,-000.10,0000.11,0000.03,24.7,02.4,0677.4,31.1
2020-06-03T00:41:00Z,00000380,00000600,0000.41,0000.51,0000.12,0000.94,0000.35,-000.16,-000.09,-000.02,-000.09,24.7,02.3,0677.4,31.1
2020-06-03T00:42:00Z,00000380,00000600,-000.75,0000.02,0000.17,0000.17,0000.47,0000.32,-000.04,-000.17,-000.09,24.7,02.3,0677.4,31.1
2020-06-03T00:43:00Z,00000380,00000600,0000.40,-000.23,0000.31,0000.48,0000.77,-000.01,-000.07,0000.03,-000.04,24.7,02.2,0677.5,31.1
2020-06-03T00:44:00Z,00000380,00000600,0001.20,0000.81,0000.03,0000.37,0000.48,0000.10,-000.07,0000.07,0000.13,24.7,02.2,0677.5,31.1
2020-06-03T00:45:00Z,00000380,00000600,0001.00,0000.59,0000.28,0000.41,0000.58,0000.33,0000.09,-000.07,-000.05,24.7,02.3,0677.5,31.1
2020-06-03T00:46:00Z,00000380,00000600,0000.70,-000.18,0000.48,-000.00,0000.31,0000.38,0000.20,0000.11,0000.14,24.7,02.3,0677.5,31.1
2020-06-03T00:47:00Z,00000380,00000600,0000.70,-000.01,0000.16,-000.36,0000.57,0000.52,-000.17,-000.05,-000.03,24.7,02.3,0677.5,31.1
2020-06-03T00:48:00Z,00000380,00000600,-000.08,0000.53,0000.02,0000.62,0000.49,0000.34,0000.02,0000.02,-000.08,24.7,02.3,0677.5,31.1
2020-06-03T00:49:00Z,00000380,00000600,0000.26,-000.19,0000.06,-000.46,0000.05,-000.10,0000.02,-000.18,0000.02,24.7,02.3,0677.5,31.1
2020-06-03T00:50:00Z,00000380,00000600,0000.35,-000.55,0000.05,0000.43,0000.32,0000.48,-000.07,0000.29,0000.16,24.7,02.2,0677.5,31.1
2020-06-03T00:51:00Z,00000380,00000600,-000.20,-000.12,0000.46,-000.00,0000.04,0000.34,-000.11,-000.47,-000.28,24.7,02.2,0677.5,31.1
2020-06-03T00:52:00Z,00000380,00000600,-000.23,0000.06,-000.25,0000.16,0000.49,0000.23,0000.11,0000.40,0000.04,24.7,02.2,0677.5,31.1
2020-06-03T00:53:00Z,00000380,00000600,-000.10,-000.09,-000.47,-000.16,0000.46,0000.32,-000.11,-000.24,-000.09,24.6,02.2,0677.5,31.1
2020-06-03T00:54:00Z,00000380,00000600,0001.09,-000.61,-000.13,-000.25,0000.40,0000.32,-000.25,-000.16,-000.13,24.6,02.2,0677.5,31.1
2020-06-03T00:55:00Z,00000380,00000600,0000.10,0000.30,0000.12,-000.16,0000.08,-000.08,-000.18,-000.20,-000.21,24.6,02.1,0677.5,31.1
2020-06-03T00:56:00Z,00000380,00000600,-000.24,-000.44,-000.33,-000.22,0000.12,0000.09,-000.20,-000.26,-000.03,24.6,01.9,0677.5,31.1
2020-06-03T00:57:00Z,00000380,40000600,,,,,,,,,,24.7,01.3,0677.4,31.1
2020-06-03T00:58:00Z,00000388,60000608,,,,,,,,,,24.8,01.9,0676.5,31.1
2020-06-03T00:59:00Z,00000388,20000608,,,,,,,,,,24.9,01.9,0676.5,31.1
2020-06-03T01:00:00Z,00000388,20000608,,,,,,,,,,24.9,01.9,0676.5,31.1
2020-06-03T01:01:00Z,00000388,20000608,,,,,,,,,,24.9,01.9,0676.5,31.1
2020-06-03T01:02:00Z,00000388,20000608,,,,,,,,,,24.9,01.9,0676.5,31.1
2020-06-03T01:03:00Z,00000388,60000608,,,,,,,,,,24.9,01.9,0676.5,31.1
2020-06-03T01:04:00Z,00000388,40000608,0001.11,0001.04,-000.04,0000.50,0000.51,-000.14,0000.22,0000.22,0000.11,24.7,01.8,0677.4,31.1
2020-06-03T01:05:00Z,00000388,00000608,0001.67,0000.42,-000.12,0000.21,0000.38,-000.44,0000.36,0000.09,0000.37,24.7,02.0,0677.4,31.1
2020-06-03T01:06:00Z,00000388,00000608,0001.01,0000.31,-000.35,-000.36,0000.29,-000.47,0000.21,0000.33,0000.16,24.7,02.1,0677.4,31.1
2020-06-03T01:07:00Z,00000388,00000608,0001.75,0000.46,0000.10,-000.18,0000.21,0000.10,0000.17,0000.06,-000.04,24.6,02.1,0677.4,31.1
2020-06-03T01:08:00Z,00000388,00000608,0001.39,0000.27,-000.08,0000.19,0000.31,0000.01,-000.02,0000.23,0000.17,24.6,02.2,0677.4,31.1
2020-06-03T01:09:00Z,00000388,00000608,0001.83,0000.50,0000.22,0000.61,0000.62,0000.42,0000.04,0000.00,-000.17,24.6,02.2,0677.5,31.1
2020-06-03T01:10:00Z,00000388,00000608,0000.52,0000.25,-000.10,0000.64,-000.07,-000.36,0000.34,0000.19,0000.29,24.6,02.2,0677.4,31.1
2020-06-03T01:11:00Z,00000388,00000608,0000.70,0000.36,-000.03,-000.82,0000.30,-000.11,0000.31,0000.16,0000.38,24.6,02.4,0677.4,31.1
2020-06-03T01:12:00Z,00000388,00000608,-000.22,0000.46,0000.25,-000.19,0000.24,0000.07,-000.02,0000.14,-000.16,24.6,02.5,0677.5,31.1
2020-06-03T01:13:00Z,00000388,00000608,0001.99,0000.91,0000.60,-000.28,0000.22,-000.06,0000.13,0000.08,0000.13,24.6,02.5,0677.5,31.1
2020-06-03T01:14:00Z,00000388,00000608,0001.82,0000.24,-000.16,0000.24,0000.24,-000.10,0000.16,0000.13,0000.08,24.6,02.5,0677.5,31.1
2020-06-03T01:15:00Z,00000388,00000608,0001.86,0000.26,0000.38,-000.03,0000.14,0000.31,-000.02,0000.01,0000.15,24.6,02.4,0677.4,31.1
2020-06-03T01:16:00Z,00000388,00000608,0001.39,0000.27,0000.09,-000.79,0000.09,-000.10,-000.01,0000.00,-000.12,24.6,02.5,0677.5,31.1
2020-06-03T01:17:00Z,00000388,00000608,0001.20,-000.25,0000.43,-000.04,0000.11,-000.31,0000.13,0000.17,0000.03,24.6,02.5,0677.4,31.0
2020-06-03T01:18:00Z,00000388,00000608,0001.40,0000.28,0000.47,0000.30,0000.52,0000.06,0000.07,-000.04,0000.11,24.6,02.6,0677.4,31.1
2020-06-03T01:19:00Z,00000388,00000608,0001.74,0000.42,-000.19,-000.50,0000.05,0000.03,0000.13,0000.21,0000.21,24.5,02.6,0677.4,31.1
2020-06-03T01:20:00Z,00000388,00000608,0000.83,-000.14,0000.21,0000.36,0000.13,-000.42,0000.08,0000.19,0000.10,24.5,02.7,0677.4,31.1
2020-06-03T01:21:00Z,00000388,00000608,0002.07,0000.39,-000.12,0000.34,-000.01,-000.35,0000.01,0000.10,0000.00,24.5,02.7,0677.4,31.0
2020-06-03T01:22:00Z,00000388,00000608,0001.46,0000.52,0000.34,-000.05,0000.34,-000.10,-000.04,-000.04,-000.11,24.5,02.7,0677.4,31.1
2020-06-03T01:23:00Z,00000388,00000608,0000.66,-000.17,0000.45,-000.42,0000.29,-000.23,0000.10,-000.04,0000.10,24.5,02.7,0677.4,31.1
2020-06-03T01:24:00Z,00000388,00000608,0000.43,0000.58,0000.10,-000.24,0000.34,-000.01,0000.00,0000.01,0000.13,24.5,02.6,0677.4,31.1
2020-06-03T01:25:00Z,00000388,00000608,0000.93,-000.16,0000.08,-000.65,0000.24,-000.21,0000.01,0000.17,-000.04,24.5,02.7,0677.4,31.1
2020-06-03T01:26:00Z,00000388,00000608,0001.09,0000.50,0000.52,-000.11,0000.28,-000.11,0000.05,-000.12,0000.03,24.5,02.6,0677.4,31.1
2020-06-03T01:27:00Z,00000388,00000608,0000.59,0000.58,0000.30,0000.64,0000.50,0000.02,0000.00,0000.03,0000.13,24.5,02.7,0677.4,31.1
2020-06-03T01:28:00Z,00000388,00000608,0000.81,0000.56,0000.03,-000.35,0000.47,0000.21,0000.23,0000.27,-000.03,24.5,02.7,0677.4,31.1
2020-06-03T01:29:00Z,00000388,00000608,0001.02,0000.35,0000.15,-000.11,0000.24,-000.03,0000.02,-000.14,0000.03,24.5,02.8,0677.4,31.1
2020-06-03T01:30:00Z,00000388,00000608,0001.21,0000.97,0000.19,0000.41,0000.72,-000.39,0000.01,0000.35,0000.06,24.5,02.7,0677.4,31.0
2020-06-03T01:31:00Z,00000388,00000608,0001.10,0000.04,0000.35,-000.30,0000.63,-000.13,0000.10,-000.19,-000.02,24.5,02.7,0677.4,31.0
2020-06-03T01:32:00Z,00000388,00000608,0000.67,0000.10,0000.63,-000.35,-000.01,0000.67,-000.11,0000.15,-000.01,24.5,02.8,0677.4,31.0
2020-06-03T01:33:00Z,00000388,00000608,0001.45,0000.09,-000.12,0000.02,0000.22,-000.47,0000.16,-000.05,0000.15,24.5,02.9,0677.4,31.1
2020-06-03T01:34:00Z,00000388,00000608,0001.36,0000.41,0000.17,0000.36,0000.58,-000.35,0000.36,0000.30,0000.32,24.5,02.9,0677.4,31.0
2020-06-03T01:35:00Z,00000388,00000608,0001.95,0000.56,-000.04,0000.48,0000.35,0000.24,-000.10,0000.08,-000.21,24.5,02.9,0677.3,31.1
2020-06-03T01:36:00Z,00000388,00000608,0001.75,0000.87,-000.45,0000.69,0000.41,-000.84,0000.11,-000.03,0000.18,24.5,02.9,0677.3,31.1
2020-06-03T01:37:00Z,00000388,00000608,0000.40,0000.09,0000.40,0000.28,0000.59,0000.04,-000.04,-000.07,0000.02,24.5,02.9,0677.3,31.0
2020-06-03T01:38:00Z,00000388,00000608,0000.48,0000.56,-000.40,-000.55,0000.36,-000.22,0000.16,0000.15,0000.06,24.5,02.9,0677.3,31.0
2020-06-03T01:39:00Z,00000380,00000600,0000.83,0000.47,-000.08,0000.42,0000.24,-000.27,-000.20,-000.21,-000.22,24.4,02.9,0677.3,31.0
2020-06-03T01:40:00Z,00000380,00000600,0001.63,-000.25,0000.08,0000.32,0000.21,0000.12,0000.17,0000.21,0000.19,24.4,02.8,0677.3,31.1
2020-06-03T01:41:00Z,00000380,00000600,0000.91,-000.05,0000.03,-000.09,0000.28,0000.00,-000.05,0000.09,0000.08,24.4,02.9,0677.3,31.0
2020-06-03T01:42:00Z,00000380,00000600,0002.01,0000.48,0000.07,0000.19,0000.26,-000.18,-000.08,0000.06,-000.02,24.4,02.8,0677.4,31.0
2020-06-03T01:43:00Z,00000380,00000600,0000.50,0000.03,-000.18,-000.62,0000.44,-000.57,0000.04,-000.28,-000.09,24.4,02.8,0677.4,31.0
2020-06-03T01:44:00Z,00000380,00000600,0001.36,0000.51,0000.29,0000.92,0000.37,-000.12,-000.09,0000.23,0000.01,24.4,02.8,0677.4,31.0
2020-06-03T01:45:00Z,00000380,00000600,0001.59,0000.48,0000.13,-000.26,0000.65,0000.07,0000.18,-000.03,0000.09,24.4,02.8,0677.4,31.0
2020-06-03T01:46:00Z,00000380,00000600,0001.00,0000.04,-000.02,-000.20,0000.38,0000.19,-000.03,0000.18,0000.10,24.4,02.9,0677.4,31.1
2020-06-03T01:47:00Z,00000380,00000600,0001.44,0000.05,0000.17,0000.40,0000.30,-000.01,-000.05,-000.28,-000.17,24.4,02.9,0677.4,31.1
2020-06-03T01:48:00Z,00000380,00000600,0001.57,0000.05,0000.26,0000.26,0000.75,-000.06,-000.02,0000.19,0000.07,24.4,02.8,0677.4,31.0
2020-06-03T01:49:00Z,00000380,00000600,0000.47,-000.52,0000.26,-000.08,0000.11,-000.12,0000.03,-000.23,0000.08,24.4,02.8,0677.4,31.0
2020-06-03T01:50:00Z,00000380,00000600,0000.83,0000.35,-000.21,0000.30,0000.55,0000.06,-000.03,0000.01,-000.07,24.4,02.8,0677.4,31.0
2020-06-03T01:51:00Z,00000380,00000600,0000.80,0000.16,0000.33,-000.37,-000.03,0000.44,-000.11,0000.10,-000.04,24.4,02.7,0677.4,31.0
2020-06-03T01:52:00Z,00000380,00000600,0000.57,0000.45,-000.05,0000.35,0000.12,-000.41,0000.14,-000.04,0000.13,24.4,02.7,0677.4,31.0
2020-06-03T01:53:00Z,00000380,00000600,0001.36,0000.22,0000.42,0000.95,0000.06,-000.06,-000.08,0000.12,-000.05,24.4,02.7,0677.4,31.0
2020-06-03T01:54:00Z,00000380,00000600,0000.23,0000.11,0000.32,-000.27,0000.40,0000.11,0000.13,0000.06,-000.02,24.4,02.7,0677.4,31.0
2020-06-03T01:55:00Z,00000380,00000600,0000.76,0000.52,0000.23,-000.38,0000.51,0000.02,0000.02,-000.05,0000.04,24.4,02.7,0677.4,31.1
2020-06-03T01:56:00Z,00000380,00000600,0001.56,-000.02,0000.18,0000.82,0000.32,0000.09,0000.06,0000.24,0000.24,24.4,02.8,0677.4,31.1
2020-06-03T01:57:00Z,00000380,40000600,,,,,,,,,,24.4,02.4,0677.5,31.0
2020-06-03T01:58:00Z,00000380,60000600,,,,,,,,,,24.5,02.5,0676.4,31.0
2020-06-03T01:59:00Z,00000380,20000600,,,,,,,,,,24.6,02.6,0676.4,31.0
2020-06-03T02:00:00Z,00000388,20000608,,,,,,,,,,24.6,02.6,0676.4,31.0
2020-06-03T02:01:00Z,00000388,20000608,,,,,,,,,,24.6,02.6,0676.4,31.1
2020-06-03T02:02:00Z,00000388,20000608,,,,,,,,,,24.6,02.6,0676.4,31.0
2020-06-03T02:03:00Z,00000388,60000608,,,,,,,,,,24.6,02.6,0676.4,31.0
2020-06-03T02:04:00Z,00000388,40000608,0000.99,0000.41,0000.69,0000.39,0000.44,0000.60,-000.11,0000.06,0000.07,24.4,02.8,0677.3,31.0
2020-06-03T02:05:00Z,00000388,00000608,-001.19,0000.99,0000.15,0000.33,0000.24,-000.05,-000.07,-000.04,-000.05,24.4,02.8,0677.4,31.0
2020-06-03T02:06:00Z,00000388,00000608,0000.16,0000.79,-000.06,0000.28,0000.10,0000.26,0000.12,0000.06,0000.04,24.4,02.8,0677.4,31.0
2020-06-03T02:07:00Z,00000388,00000608,0000.76,0000.01,0000.02,0000.28,-000.14,0000.10,-000.13,-000.14,-000.07,24.4,02.8,0677.4,31.0
2020-06-03T02:08:00Z,00000388,00000608,0001.34,0000.77,-000.05,0000.35,0000.39,-000.44,-000.15,-000.14,-000.16,24.4,02.8,0677.4,31.0
2020-06-03T02:09:00Z,00000388,00000608,0000.49,0000.93,-000.18,-000.32,0000.10,-000.19,0000.00,-000.07,-000.07,24.3,02.7,0677.4,31.0
2020-06-03T02:10:00Z,00000388,00000608,-000.66,0000.43,-000.16,-000.53,0000.08,0000.10,-000.08,-000.05,0000.08,24.3,02.6,0677.4,31.0
2020-06-03T02:11:00Z,00000388,00000608,-000.46,0000.44,0000.83,-000.77,0000.24,0000.04,-000.01,0000.08,0000.02,24.3,02.6,0677.4,31.0
2020-06-03T02:12:00Z,00000388,00000608,0000.90,0000.35,0000.18,0000.40,0000.05,0000.45,-000.01,-000.01,-000.05,24.3,02.6,0677.4,31.0
2020-06-03T02:13:00Z,00000388,00000608,-000.09,0000.53,0000.04,0000.12,0000.04,0000.20,0000.07,-000.05,0000.11,24.3,02.6,0677.4,31.0
2020-06-03T02:14:00Z,00000388,00000608,0000.72,0000.31,-000.11,0000.27,0000.31,0000.13,-000.08,0000.11,-000.10,24.3,02.6,0677.4,31.0
2020-06-03T02:15:00Z,00000388,00000608,0001.58,0000.39,0000.94,0000.28,-000.02,0000.15,0000.10,0000.13,0000.19,24.3,02.5,0677.4,31.0
2020-06-03T02:16:00Z,00000388,00000608,-000.92,0000.50,-000.13,0000.16,0000.04,-000.19,0000.00,-000.06,-000.02,24.3,02.6,0677.4,31.0
2020-06-03T02:17:00Z,00000388,00000608,-000.99,0001.54,0000.42,-000.33,-000.11,-000.27,0000.09,-000.07,-000.10,24.3,02.6,0677.4,31.0
2020-06-03T02:18:00Z,00000388,00000608,0000.93,0001.04,0000.25,-001.13,0000.43,0000.12,0000.04,0000.14,0000.08,24.3,02.7,0677.4,31.0
2020-06-03T02:19:00Z,00000388,00000608,0001.41,0001.31,0000.13,-000.74,0000.27,-000.17,0000.02,0000.08,0000.06,24.3,02.6,0677.4,31.0
2020-06-03T02:20:00Z,00000388,00000608,-001.17,0000.55,0000.07,0000.69,0000.23,-000.18,-000.17,-000.09,-000.17,24.3,02.6,0677.4,31.0
2020-06-03T02:21:00Z,00000388,00000608,0001.11,0001.21,0000.90,0000.55,-000.08,0000.41,0000.16,-000.21,0000.15,24.3,02.6,0677.4,31.0
2020-06-03T02:22:00Z,00000388,00000608,0000.87,0000.25,0000.25,-000.26,-000.09,0000.24,-000.05,0000.16,0000.01,24.2,02.6,0677.4,31.0
2020-06-03T02:23:00Z,00000388,00000608,0000.44,0000.25,-000.09,-000.18,0000.17,-000.00,0000.07,-000.11,-000.14,24.3,02.6,0677.5,31.0
2020-06-03T02:24:00Z,00000388,00000608,0001.49,0000.51,0000.18,0000.72,0000.01,0000.05,-000.13,0000.02,0000.17,24.2,02.7,0677.5,31.0
2020-06-03T02:25:00Z,00000388,00000608,-000.60,0000.50,-000.28,0000.64,0000.28,0000.12,-000.06,-000.18,-000.09,24.2,02.6,0677.5,31.0
2020-06-03T02:26:00Z,00000388,00000608,-000.23,0001.01,-000.23,0000.86,0000.12,-000.24,0000.11,0000.11,0000.13,24.2,02.5,0677.5,31.0
2020-06-03T02:27:00Z,00000388,00000608,-000.04,0001.17,0000.14,-000.45,-000.05,0000.22,-000.10,-000.05,-000.15,24.2,02.6,0677.5,31.0
2020-06-03T02:28:00Z,00000388,00000608,0000.46,0000.88,0000.45,-000.07,-000.02,0000.14,0000.09,-000.18,0000.02,24.2,02.6,0677.5,31.0
2020-06-03T02:29:00Z,00000388,00000608,0000.30,0000.98,0000.59,0000.66,0000.40,-000.15,-000.02,0000.40,0000.10,24.2,02.5,0677.5,31.0
2020-06-03T02:30:00Z,00000388,00000608,0000.12,0000.50,0000.08,-000.45,-000.05,-000.18,-000.01,0000.05,-000.12,24.2,02.4,0677.5,31.0
2020-06-03T02:31:00Z,00000388,00000608,0000.76,0000.37,-000.05,0000.38,0000.52,-000.05,0000.10,-000.00,0000.27,24.2,02.6,0677.5,31.1
2020-06-03T02:32:00Z,00000388,00000608,0000.30,0000.49,0000.57,0000.04,-000.16,0000.20,0000.10,0000.08,-000.07,24.2,02.7,0677.5,31.0
2020-06-03T02:33:00Z,00000388,00000608,0000.07,0000.21,0000.29,0000.11,0000.09,-000.31,-000.03,-000.17,-000.01,24.2,02.6,0677.5,31.0
2020-06-03T02:34:00Z,00000388,00000608,0000.18,0000.23,0000.23,0001.34,0000.19,0000.16,-000.05,-000.09,-000.07,24.2,02.5,0677.5,31.0
2020-06-03T02:35:00Z,00000388,00000608,-000.38,0000.76,-000.15,0000.22,0000.04,-000.11,-000.06,0000.14,0000.16,24.2,02.6,0677.5,31.0
2020-06-03T02:36:00Z,00000388,00000608,0000.91,0000.21,0000.71,0000.02,0000.29,0000.25,0000.03,0000.03,-000.25,24.2,02.6,0677.5,31.0
2020-06-03T02:37:00Z,00000388,00000608,-000.73,0000.83,-000.27,0000.36,-000.05,0000.04,-000.04,-000.14,0000.04,24.2,02.5,0677.5,31.0
2020-06-03T02:38:00Z,00000388,00000608,0000.57,0000.77,-000.04,0000.31,0000.34,-000.18,0000.00,-000.03,0000.10,24.2,02.4,0677.5,31.0
2020-06-03T02:39:00Z,00000388,00000608,0001.34,0000.45,-000.25,0000.35,0000.27,-000.32,-000.09,-000.08,-000.14,24.2,02.4,0677.5,31.0
2020-06-03T02:40:00Z,00000388,00000608,-001.43,0000.44,-000.18,-000.66,0000.07,0000.12,-000.03,-000.09,-000.04,24.1,02.4,0677.5,31.0
2020-06-03T02:41:00Z,00000388,00000608,-000.20,0001.38,0000.14,0000.19,-000.20,0000.31,-000.12,-000.01,-000.03,24.1,02.4,0677.5,31.0
2020-06-03T02:42:00Z,00000388,00000608,0000.14,0000.47,-000.04,-001.26,0000.18,0000.62,-000.13,-000.24,-000.19,24.1,02.3,0677.5,31.0
2020-06-03T02:43:00Z,00000388,00000608,0001.27,0001.15,0000.03,0000.27,0000.28,-000.02,-000.23,-000.09,-000.20,24.1,02.2,0677.6,31.0
2020-06-03T02:44:00Z,00000388,00000608,0001.49,0000.90,0000.17,-000.24,-000.15,0000.15,-000.16,-000.23,-000.13,24.1,02.1,0677.6,31.0
2020-06-03T02:45:00Z,00000388,00000608,-000.03,0000.58,0000.21,0000.43,0000.08,-000.00,-000.27,-000.43,-000.19,24.1,02.0,0677.6,31.0
2020-06-03T02:46:00Z,00000388,00000608,0001.14,0000.56,-000.02,0000.84,0000.52,-000.60,-000.33,-000.11,-000.10,24.1,01.9,0677.6,31.0
2020-06-03T02:47:00Z,00000388,00000608,-000.11,0000.68,0000.25,0000.07,0000.29,0000.20,-000.12,-000.16,-000.21,24.1,01.8,0677.6,31.0
2020-06-03T02:48:00Z,00000388,00000608,0001.06,0000.30,-000.12,0000.41,0000.30,0000.01,-000.09,-000.18,0000.10,24.1,01.7,0677.5,31.1
2020-06-03T02:49:00Z,00000388,00000608,-000.64,0000.77,-000.03,-000.43,-000.16,-000.38,-000.24,-000.13,-000.23,24.1,01.7,0677.5,31.0
2020-06-03T02:50:00Z,00000388,00000608,0000.60,0000.68,-000.10,-000.97,0000.37,-000.16,0000.02,-000.01,0000.18,24.1,01.7,0677.5,31.0
2020-06-03T02:51:00Z,00000388,00000608,0002.16,0000.20,-000.26,0000.41,-000.01,-000.47,0000.01,0000.11,-000.01,24.1,01.7,0677.5,31.0
2020-06-03T02:52:00Z,00000388,00000608,0000.11,0000.83,-000.16,-000.42,-000.16,-000.08,-000.06,-000.18,-000.18,24.1,01.7,0677.5,31.0
2020-06-03T02:53:00Z,00000388,00000608,0000.29,0000.33,0000.20,-000.08,0000.64,-000.20,0000.07,0000.12,0000.07,24.1,01.6,0677.5,31.0
2020-06-03T02:54:00Z,00000388,00000608,-000.92,0000.71,0000.39,-000.06,0000.46,-000.20,0000.18,0000.28,0000.25,24.1,01.7,0677.5,31.0
2020-06-03T02:55:00Z,00000388,00000608,-000.57,0000.42,-000.14,0000.72,0000.39,0000.06,0000.26,0000.03,0000.03,24.1,01.8,0677.5,31.0
2020-06-03T02:56:00Z,00000380,00000600,-000.07,0000.88,0000.15,-000.84,0000.30,0000.41,-000.07,0000.13,0000.02,24.1,01.9,0677.5,31.0
2020-06-03T02:57:00Z,00000380,40000600,,,,,,,,,,24.1,02.1,0677.4,31.0
2020-06-03T02:58:00Z,00000380,60000600,,,,,,,,,,24.2,02.0,0676.5,31.0
2020-06-03T02:59:00Z,00000380,20000600,,,,,,,,,,24.3,01.9,0676.5,31.0
2020-06-03T03:00:00Z,00000380,20000600,,,,,,,,,,24.3,01.8,0676.5,31.0
2020-06-03T03:01:00Z,00000380,20000600,,,,,,,,,,24.4,01.7,0676.5,31.0
2020-06-03T03:02:00Z,00000380,20000600,,,,,,,,,,24.4,01.7,0676.5,31.0
2020-06-03T03:03:00Z,00000380,60000600,,,,,,,,,,24.4,01.7,0676.5,31.0
2020-06-03T03:04:00Z,00000380,40000600,-000.57,-000.09,0000.80,-000.07,0000.24,0000.49,0000.09,0000.14,-000.09,24.2,02.0,0677.5,31.0
2020-06-03T03:05:00Z,00000380,00000600,-000.41,0001.25,0000.21,-000.04,0000.02,0000.22,0000.03,0000.10,-000.02,24.1,02.0,0677.6,31.0
2020-06-03T03:06:00Z,00000380,00000600,-000.67,0000.17,0000.58,-000.31,0000.48,0000.25,0000.06,0000.04,0000.13,24.1,02.0,0677.6,31.0
2020-06-03T03:07:00Z,00000380,00000600,0000.32,0000.69,0000.47,0000.29,0000.04,-000.10,0000.22,-000.04,0000.02,24.1,02.1,0677.6,31.0
2020-06-03T03:08:00Z,00000380,00000600,-000.27,0000.22,-000.01,-000.45,-000.34,0000.16,0000.02,0000.28,0000.21,24.1,02.1,0677.6,31.0
2020-06-03T03:09:00Z,00000380,00000600,0000.12,0000.08,0000.25,0000.65,-000.18,0000.39,-000.13,-000.09,-000.23,24.1,02.1,0677.6,31.0
2020-06-03T03:10:00Z,00000380,00000600,-000.18,0000.37,0000.05,0000.24,0000.17,0000.05,0000.20,-000.06,0000.06,24.1,02.2,0677.6,31.0